This is the latest recevied weather packets stored in our database for station/object KD7AWQ. If no packets are shown the sender has not sent any weather packets the latest 10 day(s).
| Time | Temp. | Humidity | Pressure | Rain* | Wind** | Luminosity | Snow |
|---|---|---|---|---|---|---|---|
| 1777920802 | 24.44° C | 17% | 1183.2 hPa | 0 mm | - | 535 W/m² | - |
| 1777920498 | 24.44° C | 16% | 1183.3 hPa | 0 mm | - | 786 W/m² | - |
| 1777919889 | 23.89° C | 17% | 1183.2 hPa | 0 mm | - | 751 W/m² | - |
| 1777919587 | 23.89° C | 17% | 1183.6 hPa | 0 mm | - | 952 W/m² | - |
| 1777919285 | 23.89° C | 17% | 1183.3 hPa | 0 mm | - | 889 W/m² | - |
| 1777918982 | 23.33° C | 18% | 1183.7 hPa | 0 mm | - | 875 W/m² | - |
| 1777918679 | 23.89° C | 17% | 1183.6 hPa | 0 mm | - | 986 W/m² | - |
| 1777918376 | 23.89° C | 17% | 1183.7 hPa | 0 mm | - | 797 W/m² | - |
| 1777918075 | 23.33° C | 17% | 1183.7 hPa | 0 mm | - | 878 W/m² | - |
| 1777917773 | 23.33° C | 17% | 1183.6 hPa | 0 mm | - | 1059 W/m² | - |
| 1777917471 | 23.33° C | 17% | 1183.5 hPa | 0 mm | - | 755 W/m² | - |
| 1777917167 | 23.33° C | 17% | 1183.8 hPa | 0 mm | - | 743 W/m² | - |
| 1777916563 | 23.33° C | 18% | 1184.1 hPa | 0 mm | - | 989 W/m² | - |
| 1777916259 | 22.78° C | 20% | 1183.8 hPa | 0 mm | - | 928 W/m² | - |
| 1777915956 | 22.78° C | 21% | 1183.7 hPa | 0 mm | - | 980 W/m² | - |
| 1777915653 | 22.78° C | 21% | 1183.3 hPa | 0 mm | - | 1000 W/m² | - |
| 1777915046 | 22.22° C | 22% | 1183.8 hPa | 0 mm | - | 714 W/m² | - |
| 1777914440 | 22.22° C | 22% | 1183.8 hPa | 0 mm | - | 823 W/m² | - |
| 1777914137 | 22.22° C | 21% | 1183.6 hPa | 0 mm | - | 880 W/m² | - |
| 1777913833 | 22.22° C | 23% | 1183.8 hPa | 0 mm | - | 822 W/m² | - |
| 1777912315 | 21.67° C | 24% | 1184 hPa | 0 mm | - | 499 W/m² | - |
| 1777911707 | 21.11° C | 23% | 1183.7 hPa | 0 mm | - | 742 W/m² | - |
| 1777911404 | 21.11° C | 24% | 1183.6 hPa | 0 mm | - | 586 W/m² | - |
| 1777910799 | 21.11° C | 25% | 1183.8 hPa | 0 mm | - | 522 W/m² | - |
| 1777910496 | 20.56° C | 23% | 1183.9 hPa | 0 mm | - | 545 W/m² | - |
* Rain latest hour (hover to see other rain measurements)
** Current wind speed in m/s (hover to see current wind gust speed)